Tracking 19720 objects as of 26-Jun-2019
HD Live streaming from Space Station
objects crossing your sky now

SL-18 R/B

Track SL-18 R/B now!
10-day predictions


NORAD ID: 26703
Int'l Code: 2001-007B
Perigee: 582.7 km
Apogee: 586.6 km
Inclination: 97.7 °
Period: 96.2 minutes
Semi major axis: 6955 km
RCS: 2.4311 m2 (large)
Launch date: February 20, 2001
Source: Commonwealth of Independent States (former USSR) (CIS)
Launch site: Svobodny, Russia (SVOB)

Pakistan's microsatellite for development of surveillance capability.
Note: This is a ROCKET BODY
aabbcc
Your satellite tracking list
Your tracking list is empty




NASA's NSSDC Master Catalog

Two Line Element Set (TLE):
1 26703U 01007B   19177.47744022 -.00000429  00000-0 -32670-4 0  9990
2 26703  97.7034 187.5156 0002804 198.8890 161.2228 14.96565522999037
Source of the keplerian elements: AFSPC